Find Starlink 35312

NORAD ID: 65866 Int'l Des: 2025-223 Owner: SPXS Country: US Constellation: starlink operational
LEOCIRCULAR

現在のビュー

3D地球を読み込み中...

Starlink 35312について

説明を読み込み中...

次回通過

Passes for default location (London). Set your location on the main map for personalized predictions.

高度履歴

Loading altitude history...

軌道要素

1 65866U 25223N 26146.57879958 .00013612 00000-0 41327-3 0 9995
2 65866 53.1593 292.1861 0000895 92.2713 267.8392 15.34398841 36130
Epoch: May 26, 2026 • Age: 9 hours

現在のステータス

高度 463.1 km
速度 7.64 km/s
衛星直下点 3.90°N, 59.35°E
打ち上げ日 Oct 3, 2025
運用期間 0.6 years
タイプ internet

技術仕様

分類 Payload
質量 575.00 kg
乾燥質量 530.00 kg
総質量 575.00 kg
長さ 0.30 m
直径 4.10 m
スパン 29.00 m
形状 Box + pan
製造者 SPXS
バスタイプ Starlink V2MO
フェーズステータス In Orbit
所有者/国 SPXS/US

Most Searched